RH
97 96 95 85 80 74 78 77 79 79 67 67 77 81 80 81 92 83 70 40 70 79 78 76 66 70 97 72 69 86 90 81 68 75 57 58 66 37 24 23 26 45 61 64 74
96 88 89 86 86 75 80 79 76 79 80 62 77 78 76 78 84 80 62 46 75 80 82 74 73 66 98 83 73 88 96 78 55 56 75 70 66 50 30 41 73 61 65 73 73
98 99 100 90 100 85 82 86 76 80 78 66 68 68 74 76 80 65 69 55 44 84 85 67 68 68 84 87 71 67 78 58 52 51 79 77 69 61 40 29 56 64 67 69 66
91 99 99 93 87 82 83 81 74 79 63 65 69 64 71 77 81 64 74 80 66 62 82 79 75 81 89 94 73 67 53 54 57 73 71 84 75 58 32 30 25 23 33 49 60
87 98 99 95 81 76 73 61 80 70 66 66 67 66 74 78 72 72 57 64 77 54 80 84 76 84 87 81 72 65 52 49 46 58 58 65 81 63 32 39 24 41 51 41 49
97 91 98 96 82 76 69 48 66 59 63 77 71 64 74 85 70 79 66 80 89 89 83 88 73 74 74 74 73 63 56 51 48 43 43 70 66 57 34 36 57 59 63 61 58
93 64 99 84 70 74 52 56 62 56 66 66 64 66 70 48 61 70 72 80 87 85 82 80 68 71 67 62 64 65 65 63 54 47 44 36 54 55 31 32 31 30 31 34 46
68 71 89 81 79 60 53 59 56 55 59 64 69 66 52 61 62 56 60 66 68 82 91 79 74 54 62 57 65 76 72 78 52 50 44 36 51 35 30 33 32 31 29 28 27
64 53 67 74 73 57 56 54 57 55 58 62 73 76 64 60 62 66 55 59 63 83 86 85 74 65 60 73 88 81 88 74 58 49 50 42 46 37 29 34 29 31 30 28 27
60 48 62 68 58 60 66 69 72 76 81 85 85 74 64 71 66 76 60 57 67 90 89 94 74 80 84 86 91 95 84 70 66 55 53 55 53 41 35 34 31 29 31 30 28
53 54 56 60 52 55 68 74 77 72 80 71 70 70 70 70 71 78 63 58 79 85 88 92 92 90 82 72 67 77 71 70 60 48 52 58 55 47 38 38 36 30 31 30 28
54 54 50 56 53 48 39 54 90 85 82 80 78 79 77 81 82 78 74 79 85 93 95 95 90 74 71 69 70 78 79 71 51 43 52 54 55 47 42 41 34 31 31 30 26
55 55 60 55 63 58 50 52 61 79 92 98 96 84 82 90 89 89 84 85 84 94 93 85 72 66 71 79 79 75 74 65 58 50 47 54 62 58 48 42 37 32 30 28 28
54 58 64 62 66 68 69 66 73 69 95 98 96 92 91 86 91 75 92 87 88 98 91 84 67 72 77 81 76 83 58 57 52 61 80 46 79 51 53 46 43 36 33 31 31
52 58 64 70 71 82 90 94 89 94 92 96 93 94 92 92 93 92 82 84 85 93 93 96 81 77 86 78 65 69 74 56 57 65 59 56 68 58 38 54 45 43 34 32 33
50 58 64 69 84 92 98 93 89 81 92 96 90 82 88 82 94 93 91 91 85 83 85 92 82 88 90 89 89 86 58 66 68 79 93 65 68 65 48 43 42 39 34 33 40
48 58 66 74 81 93 98 93 84 92 74 83 95 85 81 86 87 86 94 96 97 98 99 97 97 87 79 82 76 81 77 98 98 98 93 64 71 46 42 39 38 45 39 43 43
48 57 58 72 83 98 97 80 89 82 88 80 83 78 95 82 88 82 81 91 81 78 95 97 100 94 83 83 83 94 88 92 89 96 83 58 82 54 39 34 33 35 44 51 53
48 58 60 63 84 98 93 91 83 91 84 90 72 69 74 86 88 87 83 87 84 80 86 90 93 84 84 81 75 96 99 75 73 71 88 69 58 40 48 50 54 54 52 56 59
56 67 68 69 82 86 85 91 90 77 78 74 76 55 67 67 86 92 89 76 80 78 70 85 98 83 81 86 87 91 84 98 92 83 79 68 64 56 58 60 54 55 61 60 63
53 73 72 79 90 67 94 94 79 64 64 66 65 63 50 55 55 65 68 62 62 68 71 81 78 93 92 96 81 96 100 89 70 72 83 68 59 44 52 53 53 55 59 61 63
47 81 72 80 81 92 92 86 67 65 56 60 56 57 57 52 56 63 66 61 50 51 70 64 81 92 89 77 76 76 89 76 91 83 77 86 56 39 43 50 47 51 54 58 57
61 70 66 77 93 95 77 75 69 60 56 52 54 49 49 54 57 56 64 54 50 52 62 60 81 98 96 74 77 100 90 80 73 79 87 80 54 43 48 46 43 45 49 58 62
64 83 47 65 74 75 82 73 58 60 58 52 52 46 52 53 47 58 65 54 51 50 49 51 73 72 83 69 78 84 78 89 94 97 80 87 52 45 49 48 49 49 50 57 61
41 97 85 91 69 88 82 71 71 66 57 53 56 52 60 60 53 58 64 63 54 52 50 56 70 61 60 64 70 72 73 77 86 78 82 64 61 45 45 47 46 44 50 59 62
42 62 66 77 76 83 77 77 79 71 64 60 63 67 67 60 53 56 66 66 64 58 55 68 87 81 80 63 59 74 72 76 74 69 69 64 68 49 37 41 40 38 44 51 61
36 59 80 65 78 78 72 57 66 70 65 58 63 72 71 55 57 52 49 49 50 66 67 73 85 86 79 68 67 76 69 69 74 72 62 75 51 45 48 40 42 38 41 52 60
Wind_Speed
25 24 24 25 21 19 18 16 13 10 13 10 11 11 11 13 10 10 14 20 19 12 14 16 16 14 19 16 15 20 5 11 12 8 9 12 9 17 12 7 9 4 13 26 29
25 27 27 26 22 18 15 14 10 9 9 7 7 7 6 10 12 16 8 11 21 17 11 18 19 16 10 11 13 6 3 10 7 9 5 12 18 21 10 6 8 16 20 27 28
26 27 27 23 21 20 12 12 7 5 5 5 5 7 4 5 6 14 5 12 24 22 13 17 16 20 9 11 9 11 16 10 11 13 5 9 25 22 17 6 15 23 23 27 26
27 29 26 24 19 15 8 7 5 2 3 2 2 2 2 7 4 11 3 10 23 27 19 16 15 15 7 6 12 7 6 24 9 5 9 3 17 22 19 5 13 14 19 22 27
27 29 26 21 16 9 5 4 4 2 2 1 1 1 6 6 6 4 9 9 22 31 29 20 21 15 5 6 9 1 13 11 9 14 21 17 22 23 25 3 12 19 18 17 19
26 27 26 23 10 6 5 3 2 1 1 2 2 2 4 3 4 2 3 6 15 24 26 24 18 16 10 7 7 12 7 7 2 13 13 22 21 26 17 4 20 17 13 12 13
25 26 26 20 11 8 7 6 3 1 2 2 2 1 2 2 2 5 7 6 7 18 26 26 13 19 8 3 8 5 8 4 11 13 8 14 9 14 19 4 11 14 13 10 10
23 23 22 18 13 9 10 10 9 5 2 3 2 2 2 5 6 2 1 1 3 10 20 26 13 23 3 6 5 5 5 6 7 10 10 10 8 15 23 13 6 8 11 11 9
20 17 18 15 11 9 9 8 6 6 5 5 5 3 3 4 7 8 6 5 3 5 15 22 18 6 7 4 4 2 4 6 5 15 5 7 4 8 11 10 14 8 9 9 12
16 13 13 12 10 7 7 11 11 10 9 6 4 3 3 8 8 3 6 6 3 7 12 13 11 4 2 4 9 6 3 2 3 7 6 6 5 5 6 8 18 18 14 12 11
14 11 9 9 9 6 3 2 3 2 0 1 6 5 8 11 3 6 5 5 4 1 6 13 5 13 5 6 5 7 1 5 5 5 5 7 4 10 17 11 12 18 19 17 14
13 9 8 6 7 12 8 5 4 2 3 5 2 2 3 3 4 6 5 3 3 4 3 5 8 5 8 6 5 7 6 4 2 4 4 6 14 9 14 9 13 16 20 20 13
14 8 4 2 3 4 5 6 4 2 2 2 2 2 3 4 3 5 8 6 5 4 4 8 7 9 8 7 6 1 5 3 4 2 2 4 6 9 9 10 18 20 21 21 17
14 9 4 3 4 3 2 1 1 2 2 8 4 1 1 4 4 5 7 4 3 7 3 4 5 10 7 8 5 5 4 6 2 3 4 4 5 6 9 15 10 23 25 22 18
12 10 6 3 3 3 7 5 4 1 4 10 4 2 3 1 10 2 7 2 5 6 3 2 4 13 7 5 5 5 3 5 2 5 3 1 1 6 3 9 16 16 24 21 20
10 10 8 5 5 5 4 2 3 5 5 4 4 2 3 2 3 6 2 4 6 5 5 3 3 3 3 2 3 3 2 6 4 4 2 5 5 5 6 8 8 8 22 21 21
8 9 9 9 6 4 4 1 4 6 1 6 2 2 3 3 4 5 4 6 4 5 1 3 3 1 2 5 4 2 4 2 2 4 5 3 5 15 6 7 7 10 22 23 24
7 5 10 11 8 4 3 3 9 4 2 5 3 3 2 3 5 2 3 2 1 4 3 4 3 3 2 1 5 3 3 4 5 4 4 2 8 7 5 13 16 26 31 26 25
5 3 13 11 8 5 2 6 6 5 3 3 6 1 3 3 4 2 1 1 2 3 5 4 1 2 2 2 3 4 6 2 2 3 3 5 7 9 2 2 13 23 27 26 24
4 4 14 12 7 6 4 2 2 4 3 2 3 1 1 4 6 5 6 3 2 6 4 7 4 4 3 1 0 3 2 2 3 3 3 4 5 6 3 8 11 14 19 25 22
5 4 12 12 5 5 3 4 3 7 6 3 2 4 0 1 1 3 5 5 5 7 4 5 4 4 5 7 9 5 4 6 3 4 4 3 5 5 10 12 15 15 25 27 22
4 3 9 12 4 3 1 4 2 5 4 3 2 2 2 3 2 1 5 3 2 9 6 7 5 4 2 4 7 7 5 4 4 4 2 3 5 5 7 7 14 17 25 23 21
4 3 6 8 3 3 5 4 3 2 2 3 3 1 1 2 1 2 2 1 0 3 7 6 0 3 1 1 3 4 5 5 2 3 5 5 5 4 3 9 15 19 21 23 20
3 3 4 6 4 1 4 4 3 4 3 3 3 2 2 2 2 3 2 1 0 0 2 3 4 6 7 5 5 5 7 12 8 4 3 5 4 2 4 8 11 19 22 23 22
6 3 3 3 4 5 4 3 3 3 4 3 3 1 3 3 2 3 3 0 1 1 1 4 5 4 5 4 4 5 6 10 10 11 8 7 7 6 10 10 19 25 22 22 21
4 3 3 3 8 5 4 3 5 5 2 2 3 5 4 5 3 3 6 4 5 1 2 2 2 2 3 4 4 3 7 9 12 5 7 5 5 7 13 11 14 21 20 22 24
6 2 0 2 5 1 1 3 5 10 7 7 1 3 5 3 2 3 3 4 4 7 6 3 4 3 4 1 3 6 13 15 7 7 13 9 13 2 6 14 19 21 24 25 24
Wind_Direction
346 341 327 327 320 321 312 306 304 287 288 288 270 255 252 229 235 256 246 224 212 202 203 207 217 216 168 180 161 169 173 215 202 206 203 354 346 329 339 127 124 145 154 156 161
342 337 337 337 330 317 313 311 303 290 292 294 285 263 247 233 234 245 261 235 205 185 197 204 207 206 189 166 175 150 208 197 204 174 76 337 319 306 345 325 94 121 141 155 161
346 342 340 334 334 332 312 319 313 306 295 296 267 269 259 220 246 259 260 233 215 199 200 212 206 193 178 182 164 167 223 232 238 235 328 328 311 305 293 272 152 149 150 165 169
350 344 342 340 340 335 319 333 337 320 327 304 279 285 189 173 207 134 226 252 226 207 199 192 194 186 162 177 196 147 213 191 139 137 213 303 295 303 309 232 182 174 162 163 179
350 348 346 347 340 352 348 2 46 20 20 339 290 172 161 206 252 189 6 224 202 200 197 185 183 181 173 174 191 218 189 198 188 158 181 225 250 275 294 131 159 176 165 161 174
355 353 356 358 350 18 14 48 42 13 85 74 42 115 165 242 85 192 53 163 173 197 194 191 191 172 181 179 163 196 224 114 231 250 187 173 204 247 271 239 132 139 155 158 159
360 4 8 20 38 41 40 41 26 133 127 121 72 164 230 283 356 22 90 84 172 206 201 200 186 180 175 133 196 136 206 125 239 220 195 170 180 214 217 201 144 151 144 141 159
5 12 16 36 46 60 52 61 72 104 123 118 56 344 296 41 18 334 71 229 24 203 206 196 187 192 191 145 110 142 101 164 221 200 195 172 227 211 202 241 186 168 172 181 177
7 18 28 48 46 64 51 63 82 90 87 86 36 10 1 14 9 14 209 207 333 197 202 185 191 179 203 153 89 160 174 179 191 190 144 187 225 237 242 217 224 203 203 191 200
4 12 28 38 60 64 81 99 91 90 88 75 33 331 3 331 329 22 165 203 202 161 175 185 182 151 144 157 189 162 165 148 168 198 165 207 247 296 296 283 223 212 221 231 234
359 2 19 29 42 23 353 122 121 107 72 11 312 288 313 325 73 145 170 187 162 193 163 186 171 193 159 129 139 114 146 180 196 183 152 212 240 249 262 278 250 230 229 235 247
356 353 11 7 46 53 41 74 67 5 350 345 2 288 350 17 98 122 143 123 141 171 239 156 195 149 132 169 118 165 175 233 302 261 180 204 234 228 251 238 241 227 224 227 220
356 347 354 315 17 48 58 95 71 17 33 286 65 11 360 84 81 159 147 96 117 160 220 166 156 143 146 184 177 179 161 208 187 53 198 120 276 244 249 241 245 245 231 222 218
358 355 356 329 249 312 295 50 166 331 53 9 3 67 92 128 74 148 134 103 99 189 205 95 139 157 163 183 128 216 217 206 154 125 213 149 268 251 221 237 234 242 235 228 194
353 360 7 1 270 269 304 290 267 187 56 323 322 323 152 85 133 58 161 45 124 128 168 173 152 164 167 171 145 225 329 201 202 159 134 233 235 263 196 226 232 216 215 204 192
353 7 357 357 306 314 348 332 161 43 11 16 303 31 153 114 123 116 185 295 104 100 61 51 62 48 94 91 71 283 68 57 60 53 295 200 178 252 211 221 213 194 200 190 179
4 15 19 10 347 357 332 227 35 64 321 320 10 41 60 95 110 128 212 173 150 128 109 55 8 4 97 87 26 42 66 72 190 212 226 205 183 244 244 247 212 179 183 172 172
360 46 23 16 6 15 306 44 64 257 266 297 277 223 14 24 26 182 101 133 45 123 115 152 165 155 72 141 162 155 128 160 200 200 232 182 225 246 246 269 229 189 171 166 167
1 79 22 6 1 3 354 50 187 208 235 284 314 98 130 151 140 279 76 221 200 188 115 128 147 118 243 87 175 175 204 225 115 355 68 223 291 308 62 152 150 156 165 166 166
24 110 18 14 9 354 69 150 187 203 221 254 295 227 137 149 176 192 192 213 241 203 144 184 121 223 151 27 103 179 102 171 278 148 258 267 268 238 218 181 167 165 160 168 170
51 95 12 7 25 39 96 224 258 245 233 225 289 310 80 226 162 191 185 175 206 174 181 146 104 152 157 212 192 173 219 210 150 143 185 287 263 227 207 184 175 165 164 170 176
66 59 6 357 40 57 136 215 287 291 269 280 229 279 306 16 27 128 202 214 159 153 176 195 126 163 202 194 215 207 220 213 137 213 193 150 275 323 241 178 165 163 172 178 190
61 53 18 15 68 333 305 267 234 268 274 303 291 272 315 312 309 158 186 227 147 154 168 175 268 114 31 357 192 219 209 213 68 54 214 152 257 350 104 141 170 166 182 187 192
31 38 35 67 74 61 355 278 299 224 251 250 252 297 318 284 218 213 214 229 310 181 159 137 160 170 192 206 144 202 186 193 188 193 193 221 276 282 191 169 176 181 185 191 199
40 63 35 325 324 329 282 271 289 314 229 256 297 213 315 286 284 218 175 293 271 253 223 151 202 205 217 187 168 199 190 182 194 210 202 236 217 218 202 189 190 189 193 198 206
77 40 348 277 301 305 343 3 357 334 301 270 225 309 312 215 217 278 174 184 215 165 198 21 260 82 302 252 222 250 237 212 222 222 244 217 260 228 219 210 198 201 203 210 214
60 63 122 330 318 323 153 360 313 326 281 241 19 304 305 243 243 267 257 249 211 169 188 153 132 82 269 24 14 300 228 213 206 203 214 202 220 182 218 200 209 212 214 214 217